M I D A S
Marine Information and Data Acquisition System
Tripno 1379 of the Zeeleeuw from 2007-10-02 05:09:04 to 2007-10-02 18:04:07
Back to CruiseResearch ActivitiesStationsMapUnderway DataData graphs

EquipmentUnitsComment
TimeDGPSUTC
LatitudeDGPSDM.mWGS84
LongitudeDGPSDM.mWGS84
HeadingGyrodeg 
SOGDGPSknotsSpeed over ground
COGDGPSdegCourse over ground
DepthEcho soundermeters200 kHz
Missing or incorrect values are displayed as -999
Navigation data collected by the RV Zeeleeuw from 2007-10-02 05:12:44 to 2007-10-02 18:13:25
                                                                                    Next 1000 lines
Time Latitude Longitude Heading SOG COG Depth
2007-10-02 05:12:54 51°13.597 2°56.093 112.6 0.5 285 10.3
2007-10-02 05:12:58 51°13.597 2°56.091 112.5 0.8 287 10.5
2007-10-02 05:13:04 51°13.598 2°56.089 112.5 1.1 290 10.5
2007-10-02 05:13:09 51°13.599 2°56.086 112.7 1.5 291 10.4
2007-10-02 05:13:14 51°13.599 2°56.082 113.3 1.9 291 10.6
2007-10-02 05:13:19 51°13.601 2°56.077 113.9 2.3 292 -999
2007-10-02 05:13:25 51°13.602 2°56.071 114.5 2.7 293 -999
2007-10-02 05:13:31 51°13.604 2°56.064 114.7 3 292 -999
2007-10-02 05:13:37 51°13.606 2°56.055 115.3 3.4 294 -999
2007-10-02 05:13:42 51°13.608 2°56.048 115.9 3.7 293 -999
2007-10-02 05:13:48 51°13.611 2°56.038 116.2 4 294 -999
2007-10-02 05:13:53 51°13.613 2°56.03 116.6 4.2 293 -999
2007-10-02 05:13:58 51°13.616 2°56.021 117 4.4 293 -999
2007-10-02 05:14:03 51°13.618 2°56.011 117.3 4.6 293 -999
2007-10-02 05:14:08 51°13.621 2°56.002 117.8 4.7 294 -999
2007-10-02 05:14:13 51°13.624 2°55.992 119.1 4.9 294 -999
2007-10-02 05:14:18 51°13.627 2°55.982 120.3 5 296 -999
2007-10-02 05:14:23 51°13.63 2°55.972 121.2 5.2 296 -999
2007-10-02 05:14:28 51°13.634 2°55.962 122.4 5.2 298 -999
2007-10-02 05:14:33 51°13.637 2°55.951 123.7 5.3 299 -999
2007-10-02 05:14:38 51°13.641 2°55.941 124.8 5.3 300 -999
2007-10-02 05:14:43 51°13.645 2°55.931 125.5 5.4 301 -999
2007-10-02 05:14:48 51°13.649 2°55.921 126.2 5.4 302 -999
2007-10-02 05:14:53 51°13.653 2°55.911 127.3 5.5 303 -999
2007-10-02 05:14:58 51°13.657 2°55.901 127.9 5.4 303 -999
2007-10-02 05:15:03 51°13.661 2°55.89 128.1 5.4 303 -999
2007-10-02 05:15:08 51°13.665 2°55.881 128.1 5.4 303 -999
2007-10-02 05:15:13 51°13.669 2°55.871 128 5.4 303 -999
2007-10-02 05:15:18 51°13.673 2°55.861 127.9 5.3 304 -999
2007-10-02 05:15:23 51°13.677 2°55.851 127.5 5.1 303 -999
2007-10-02 05:15:28 51°13.681 2°55.842 127 4.9 303 -999
2007-10-02 05:15:33 51°13.684 2°55.833 126.1 4.7 302 -999
2007-10-02 05:15:38 51°13.688 2°55.825 125.5 4.6 302 -999
2007-10-02 05:15:43 51°13.691 2°55.816 124.6 4.4 301 -999
2007-10-02 05:15:48 51°13.694 2°55.808 123.3 4.3 300 -999
2007-10-02 05:15:53 51°13.697 2°55.8 122 4.2 299 -999
2007-10-02 05:15:58 51°13.699 2°55.792 121 4.1 298 -999
2007-10-02 05:16:03 51°13.702 2°55.784 119.7 3.9 297 -999
2007-10-02 05:16:08 51°13.704 2°55.777 118.2 3.9 296 -999
2007-10-02 05:16:13 51°13.706 2°55.769 116.5 3.8 295 -999
2007-10-02 05:16:18 51°13.708 2°55.762 115 3.6 294 -999
2007-10-02 05:16:23 51°13.71 2°55.754 113.8 3.6 293 -999
2007-10-02 05:16:28 51°13.712 2°55.747 112.3 3.4 291 -999
2007-10-02 05:16:33 51°13.714 2°55.741 110.9 3.3 291 -999
2007-10-02 05:16:38 51°13.715 2°55.734 109.7 3.2 290 -999
2007-10-02 05:16:43 51°13.716 2°55.728 108.6 3 289 -999
2007-10-02 05:16:48 51°13.718 2°55.722 107.5 2.8 288 -999
2007-10-02 05:16:53 51°13.719 2°55.716 106.6 2.6 287 14.3
2007-10-02 05:16:58 51°13.72 2°55.711 105.6 2.3 287 13.9
2007-10-02 05:17:02 51°13.72 2°55.708 104.5 2.1 287 13.8
2007-10-02 05:17:07 51°13.721 2°55.704 103 1.8 286 13.7
2007-10-02 05:17:12 51°13.722 2°55.701 101.2 1.6 286 13.6
2007-10-02 05:17:17 51°13.722 2°55.697 99.4 1.4 287 -999
2007-10-02 05:17:22 51°13.723 2°55.695 97.7 1.2 288 13.5
2007-10-02 05:17:27 51°13.723 2°55.693 95.5 1 289 13.9
2007-10-02 05:17:32 51°13.724 2°55.691 93.9 0.8 292 13.5
2007-10-02 05:17:37 51°13.724 2°55.69 91.5 0.7 299 13.7
2007-10-02 05:17:42 51°13.725 2°55.689 89.1 0.5 308 -999
2007-10-02 05:17:47 51°13.725 2°55.688 86.5 0.4 322 13.5
2007-10-02 05:17:52 51°13.726 2°55.688 83.7 0.4 348 13.6
2007-10-02 05:17:56 51°13.726 2°55.688 80.6 0.4 8 13.8
2007-10-02 05:18:01 51°13.727 2°55.688 77.5 0.5 24 13.5
2007-10-02 05:18:06 51°13.728 2°55.689 73.5 0.6 28 -999
2007-10-02 05:18:11 51°13.728 2°55.689 70.6 0.7 32 13.5
2007-10-02 05:18:16 51°13.729 2°55.691 67 0.9 37 13.5
2007-10-02 05:18:21 51°13.731 2°55.692 63.2 1.1 39 13.5
2007-10-02 05:18:26 51°13.732 2°55.694 58.8 1.3 34 13.5
2007-10-02 05:18:31 51°13.734 2°55.696 53.9 1.4 34 13.3
2007-10-02 05:18:36 51°13.736 2°55.697 48.6 1.6 30 13.3
2007-10-02 05:18:41 51°13.738 2°55.699 43.2 1.7 26 13.3
2007-10-02 05:18:45 51°13.74 2°55.7 38 1.8 22 13.1
2007-10-02 05:18:50 51°13.742 2°55.701 33 1.8 20 13
2007-10-02 05:18:55 51°13.744 2°55.702 28.5 1.6 16 13
2007-10-02 05:19:00 51°13.746 2°55.703 25.4 1.5 13 13
2007-10-02 05:19:05 51°13.748 2°55.704 23 1.1 11 13
2007-10-02 05:19:10 51°13.749 2°55.704 20 0.7 5 -999
2007-10-02 05:19:15 51°13.749 2°55.704 16.9 0.2 343 -999
2007-10-02 05:19:20 51°13.748 2°55.703 14.5 0.3 210 13
2007-10-02 05:19:25 51°13.747 2°55.703 12.5 0.8 195 12.9
2007-10-02 05:19:30 51°13.746 2°55.702 11 1.1 193 12.9
2007-10-02 05:19:34 51°13.744 2°55.702 9.9 1.4 191 13
2007-10-02 05:19:40 51°13.742 2°55.701 9.1 1.6 191 -999
2007-10-02 05:19:46 51°13.739 2°55.7 8.3 1.5 190 -999
2007-10-02 05:19:51 51°13.737 2°55.7 8.3 1.2 193 -999
2007-10-02 05:19:57 51°13.736 2°55.699 8.2 0.5 198 -999
2007-10-02 05:20:02 51°13.736 2°55.699 7 0.3 312 -999
2007-10-02 05:20:08 51°13.738 2°55.698 3.3 1.1 343 -999
2007-10-02 05:20:13 51°13.741 2°55.697 358.7 2.1 347 -999
2007-10-02 05:20:18 51°13.745 2°55.695 353.3 3.1 344 -999
2007-10-02 05:20:23 51°13.75 2°55.692 349.8 4.2 343 -999
2007-10-02 05:20:28 51°13.757 2°55.689 348.3 5 342 -999
2007-10-02 05:20:33 51°13.764 2°55.685 347.2 5.3 341 -999
2007-10-02 05:20:38 51°13.771 2°55.681 346.2 5.3 340 12.9
2007-10-02 05:20:42 51°13.777 2°55.678 344.7 5.3 339 12.8
2007-10-02 05:20:47 51°13.784 2°55.673 344 5.6 339 12.7
2007-10-02 05:20:52 51°13.792 2°55.668 343.4 6.3 338 12.6
2007-10-02 05:20:57 51°13.8 2°55.663 343.4 6.7 339 12.7
2007-10-02 05:21:02 51°13.809 2°55.657 343.7 7.2 338 12.6
2007-10-02 05:21:07 51°13.819 2°55.651 343.2 7.4 338 12.6
2007-10-02 05:21:12 51°13.829 2°55.645 342.7 7.7 337 12.6
2007-10-02 05:21:17 51°13.839 2°55.638 342.1 8 337 12.7
2007-10-02 05:21:22 51°13.849 2°55.631 341.7 8.2 337 12.6
2007-10-02 05:21:27 51°13.86 2°55.623 341.7 8.3 336 12.5
2007-10-02 05:21:32 51°13.87 2°55.616 341.4 8.5 336 12.4
2007-10-02 05:21:36 51°13.879 2°55.609 341 8.6 336 12.4
2007-10-02 05:21:42 51°13.892 2°55.6 340.8 8.8 336 -999
2007-10-02 05:21:46 51°13.901 2°55.593 340.8 8.8 336 12.4
2007-10-02 05:21:52 51°13.914 2°55.584 340.6 8.8 335 12.4
2007-10-02 05:21:57 51°13.926 2°55.576 340.4 8.8 336 12.4
2007-10-02 05:22:01 51°13.934 2°55.569 340.6 8.8 335 12.5
2007-10-02 05:22:06 51°13.945 2°55.561 340.4 8.8 334 12.5
2007-10-02 05:22:11 51°13.956 2°55.553 339.4 8.7 334 12.4
2007-10-02 05:22:16 51°13.967 2°55.544 339 8.7 334 12.4
2007-10-02 05:22:21 51°13.978 2°55.536 339 8.7 335 12.4
2007-10-02 05:22:26 51°13.989 2°55.528 339.5 8.6 335 12.4
2007-10-02 05:22:30 51°13.997 2°55.521 340.2 8.5 335 12.3
2007-10-02 05:22:36 51°14.01 2°55.512 340.4 8.4 335 12.3
2007-10-02 05:22:41 51°14.02 2°55.504 339.7 8.2 334 12.3
2007-10-02 05:22:46 51°14.03 2°55.496 339 8 334 12.3
2007-10-02 05:22:50 51°14.038 2°55.49 338.9 7.8 334 12.3
2007-10-02 05:22:55 51°14.048 2°55.483 338.8 7.6 334 12.3
2007-10-02 05:23:01 51°14.059 2°55.474 338.8 7.5 334 12.3
2007-10-02 05:23:06 51°14.068 2°55.467 338.9 7.3 334 -999
2007-10-02 05:23:11 51°14.077 2°55.46 338.9 7.2 334 12.3
2007-10-02 05:23:17 51°14.087 2°55.452 338.2 7 333 12.4
2007-10-02 05:23:21 51°14.094 2°55.446 337.3 7 332 12.4
2007-10-02 05:23:26 51°14.103 2°55.439 336.5 6.9 332 12.4
2007-10-02 05:23:31 51°14.111 2°55.431 336 6.9 332 12.3
2007-10-02 05:23:37 51°14.121 2°55.422 335.9 6.8 330 12.4
2007-10-02 05:23:41 51°14.128 2°55.417 335.3 6.8 331 12.4
2007-10-02 05:23:46 51°14.136 2°55.409 334.8 6.8 329 -999
2007-10-02 05:23:52 51°14.146 2°55.4 333.9 6.9 329 12.4
2007-10-02 05:23:57 51°14.154 2°55.392 333.5 7 328 -999
2007-10-02 05:24:02 51°14.162 2°55.383 333 7.1 328 12.4
2007-10-02 05:24:07 51°14.171 2°55.374 332.1 7.3 326 12.4
2007-10-02 05:24:13 51°14.181 2°55.363 330.9 7.7 325 -999
2007-10-02 05:24:18 51°14.19 2°55.352 329.8 8 324 -999
2007-10-02 05:24:22 51°14.197 2°55.344 328.8 8.3 323 12.8
2007-10-02 05:24:28 51°14.208 2°55.33 328.1 8.5 322 12.7
2007-10-02 05:24:33 51°14.218 2°55.318 327.2 8.8 321 12.3
2007-10-02 05:24:38 51°14.227 2°55.305 325.8 9 320 -999
2007-10-02 05:24:42 51°14.235 2°55.294 324.7 9.3 319 12.7
2007-10-02 05:24:47 51°14.245 2°55.28 324.1 9.4 318 13
2007-10-02 05:24:52 51°14.255 2°55.265 323.5 9.6 316 12.3
2007-10-02 05:24:57 51°14.264 2°55.25 321.5 9.7 313 12.3
2007-10-02 05:25:02 51°14.273 2°55.234 319.3 9.9 313 12.3
2007-10-02 05:25:06 51°14.28 2°55.22 318.2 10 311 12.4
2007-10-02 05:25:12 51°14.291 2°55.199 316.6 10.2 309 12.4
2007-10-02 05:25:17 51°14.3 2°55.181 314.7 10.4 307 12.4
2007-10-02 05:25:21 51°14.307 2°55.166 312.4 10.7 306 12.5
2007-10-02 05:25:26 51°14.316 2°55.146 311.4 11 306 12.4
2007-10-02 05:25:31 51°14.325 2°55.126 311.3 11.4 307 -999
2007-10-02 05:25:36 51°14.335 2°55.106 312.2 11.7 308 12.6
2007-10-02 05:25:41 51°14.346 2°55.085 313.3 12.1 309 12.7
2007-10-02 05:25:46 51°14.356 2°55.064 313.2 12.3 308 12.5
2007-10-02 05:25:50 51°14.365 2°55.047 313 12.4 311 12.5
2007-10-02 05:25:55 51°14.377 2°55.027 315.9 12.5 314 12.3
2007-10-02 05:26:00 51°14.389 2°55.007 317.9 12.6 315 12.3
2007-10-02 05:26:05 51°14.403 2°54.988 319.8 12.7 318 12.6
2007-10-02 05:26:10 51°14.416 2°54.97 321.9 12.8 320 12.6
2007-10-02 05:26:14 51°14.427 2°54.956 324.8 12.8 322 12.7
2007-10-02 05:26:20 51°14.444 2°54.936 326.1 12.8 324 12.6
2007-10-02 05:26:25 51°14.459 2°54.92 327.5 12.8 326 12.5
2007-10-02 05:26:29 51°14.471 2°54.909 330.3 12.8 329 12.1
2007-10-02 05:26:34 51°14.487 2°54.894 331.9 12.9 329 12.1
2007-10-02 05:26:38 51°14.499 2°54.883 332.3 12.8 331 11.8
2007-10-02 05:26:44 51°14.517 2°54.866 332.6 12.9 330 12.1
2007-10-02 05:26:49 51°14.533 2°54.852 332.7 12.8 331 11.6
2007-10-02 05:26:54 51°14.549 2°54.839 332.3 12.8 332 11.7
2007-10-02 05:26:58 51°14.562 2°54.829 332.7 12.8 334 11.6
2007-10-02 05:27:04 51°14.58 2°54.813 332.5 12.8 332 11.6
2007-10-02 05:27:09 51°14.596 2°54.801 331.8 12.7 333 11.3
2007-10-02 05:27:14 51°14.612 2°54.788 331.9 12.7 333 11.5
2007-10-02 05:27:19 51°14.627 2°54.775 331 12.7 331 11.4
2007-10-02 05:27:24 51°14.643 2°54.761 330.2 12.6 331 11.4
2007-10-02 05:27:29 51°14.658 2°54.747 329.8 12.6 329 11.6
2007-10-02 05:27:34 51°14.673 2°54.733 329.2 12.6 330 11.7
2007-10-02 05:27:39 51°14.688 2°54.719 328.9 12.7 329 11.8
2007-10-02 05:27:44 51°14.703 2°54.705 329.4 12.6 330 11.4
2007-10-02 05:27:49 51°14.718 2°54.692 330.2 12.6 331 11.6
2007-10-02 05:27:54 51°14.733 2°54.678 329.8 12.5 330 11.6
2007-10-02 05:27:59 51°14.748 2°54.665 330 12.5 331 11.5
2007-10-02 05:28:04 51°14.763 2°54.651 330.2 12.5 329 11.7
2007-10-02 05:28:09 51°14.779 2°54.636 330.1 12.6 330 11.7
2007-10-02 05:28:14 51°14.794 2°54.623 329.8 12.6 329 11.6
2007-10-02 05:28:18 51°14.806 2°54.611 329.6 12.6 330 11.4
2007-10-02 05:28:24 51°14.824 2°54.595 329.9 12.7 331 11.8
2007-10-02 05:28:29 51°14.84 2°54.582 331.1 12.7 333 11.5
2007-10-02 05:28:34 51°14.856 2°54.57 331.5 12.7 334 11.7
2007-10-02 05:28:39 51°14.872 2°54.558 332.4 12.8 335 11.5
2007-10-02 05:28:44 51°14.888 2°54.546 332.6 12.8 335 11.6
2007-10-02 05:28:49 51°14.904 2°54.534 332.9 12.8 335 11.6
2007-10-02 05:28:54 51°14.92 2°54.521 332.5 12.7 334 11.2
2007-10-02 05:28:59 51°14.936 2°54.509 332.1 12.8 335 11.3
2007-10-02 05:29:04 51°14.952 2°54.497 332.1 12.8 335 10.9
2007-10-02 05:29:09 51°14.968 2°54.485 332 12.8 334 10.8
2007-10-02 05:29:14 51°14.984 2°54.473 331.7 12.8 334 10.7
2007-10-02 05:29:19 51°15 2°54.46 331.1 12.7 333 10.5
2007-10-02 05:29:24 51°15.015 2°54.447 330.7 12.7 333 10.5
2007-10-02 05:29:29 51°15.031 2°54.435 330.4 12.8 333 10.6
2007-10-02 05:29:34 51°15.047 2°54.421 330.9 12.8 332 10.5
2007-10-02 05:29:38 51°15.059 2°54.411 330.2 12.8 331 10.8
2007-10-02 05:29:44 51°15.077 2°54.393 329.8 12.6 329 10.3
2007-10-02 05:29:49 51°15.093 2°54.379 328.9 12.6 330 10.5
2007-10-02 05:29:54 51°15.108 2°54.365 329.3 12.7 329 10.6
2007-10-02 05:29:58 51°15.12 2°54.353 329.4 12.7 330 10.7
2007-10-02 05:30:04 51°15.138 2°54.336 329.7 12.7 329 10.7
2007-10-02 05:30:09 51°15.154 2°54.322 330.5 12.7 330 10.7
2007-10-02 05:30:14 51°15.169 2°54.309 331.1 12.6 331 10.9
2007-10-02 05:30:19 51°15.184 2°54.295 331.5 12.7 331 11
2007-10-02 05:30:24 51°15.199 2°54.281 331.7 12.6 331 10.9
2007-10-02 05:30:29 51°15.215 2°54.268 331.4 12.6 330 11
2007-10-02 05:30:34 51°15.23 2°54.253 330.8 12.7 330 11
2007-10-02 05:30:39 51°15.245 2°54.24 330.9 12.7 330 10.9
2007-10-02 05:30:44 51°15.26 2°54.226 330.9 12.6 330 11.1
2007-10-02 05:30:49 51°15.275 2°54.211 330.9 12.7 329 11.2
2007-10-02 05:30:54 51°15.29 2°54.197 331.1 12.6 329 11.1
2007-10-02 05:30:58 51°15.302 2°54.186 331 12.6 330 11.1
2007-10-02 05:31:04 51°15.32 2°54.169 331.5 12.6 329 11.3
2007-10-02 05:31:09 51°15.335 2°54.155 331.3 12.5 329 11.4
2007-10-02 05:31:14 51°15.35 2°54.14 331.5 12.6 329 11.8
2007-10-02 05:31:19 51°15.365 2°54.126 331.8 12.5 329 11.5
2007-10-02 05:31:24 51°15.379 2°54.112 331 12.5 330 11.5
2007-10-02 05:31:29 51°15.394 2°54.098 331.5 12.5 329 11.4
2007-10-02 05:31:34 51°15.409 2°54.084 331 12.5 329 12
2007-10-02 05:31:39 51°15.424 2°54.07 330.9 12.5 329 11.8
2007-10-02 05:31:44 51°15.44 2°54.056 330.9 12.6 331 11.7
2007-10-02 05:31:49 51°15.455 2°54.042 331.4 12.6 330 11.9
2007-10-02 05:31:54 51°15.47 2°54.028 331.5 12.6 330 11.9
2007-10-02 05:31:58 51°15.482 2°54.016 331.5 12.7 330 11.9
2007-10-02 05:32:04 51°15.5 2°54 331.2 12.7 330 12.1
2007-10-02 05:32:09 51°15.516 2°53.985 331 12.8 330 12.1
2007-10-02 05:32:14 51°15.531 2°53.971 331.1 12.8 330 12.2
2007-10-02 05:32:19 51°15.546 2°53.958 331.5 12.8 331 12.1
2007-10-02 05:32:24 51°15.562 2°53.944 331.6 12.8 332 12.2
2007-10-02 05:32:29 51°15.578 2°53.931 332.1 12.9 332 12.2
2007-10-02 05:32:34 51°15.594 2°53.917 332.4 12.9 332 12.3
2007-10-02 05:32:39 51°15.609 2°53.904 332.4 12.8 331 12.4
2007-10-02 05:32:44 51°15.625 2°53.89 332.6 12.8 332 12.4
2007-10-02 05:32:49 51°15.641 2°53.877 332.4 12.9 332 12.5
2007-10-02 05:32:54 51°15.656 2°53.863 332.1 12.9 332 12.5
2007-10-02 05:32:58 51°15.669 2°53.853 331.7 12.8 331 12.3
2007-10-02 05:33:04 51°15.687 2°53.836 331.3 12.8 332 12.6
2007-10-02 05:33:09 51°15.703 2°53.823 331.1 12.8 331 12.5
2007-10-02 05:33:14 51°15.719 2°53.809 331 12.8 332 12.5
2007-10-02 05:33:19 51°15.734 2°53.796 331.2 12.8 332 12.7
2007-10-02 05:33:24 51°15.75 2°53.783 331.5 12.7 332 12.6
2007-10-02 05:33:29 51°15.765 2°53.77 331.8 12.8 332 12.6
2007-10-02 05:33:34 51°15.781 2°53.756 331.7 12.7 331 12.9
2007-10-02 05:33:39 51°15.797 2°53.743 331.3 12.7 332 12.7
2007-10-02 05:33:44 51°15.812 2°53.731 331.2 12.6 332 12.7
2007-10-02 05:33:49 51°15.827 2°53.717 330.9 12.6 332 12.8
2007-10-02 05:33:54 51°15.843 2°53.704 330.9 12.6 332 12.8
2007-10-02 05:33:59 51°15.858 2°53.691 330.9 12.6 331 13
2007-10-02 05:34:04 51°15.874 2°53.678 331.5 12.6 333 13
2007-10-02 05:34:09 51°15.889 2°53.665 331.4 12.6 332 12.8
2007-10-02 05:34:14 51°15.905 2°53.652 331.5 12.6 332 13.1
2007-10-02 05:34:18 51°15.917 2°53.642 331.6 12.6 333 13
2007-10-02 05:34:24 51°15.936 2°53.626 331.3 12.6 332 12.9
2007-10-02 05:34:29 51°15.951 2°53.613 331 12.6 332 13.1
2007-10-02 05:34:34 51°15.967 2°53.601 331.1 12.6 333 13.1
2007-10-02 05:34:39 51°15.982 2°53.587 331.3 12.6 332 13.2
2007-10-02 05:34:44 51°15.998 2°53.574 331.6 12.5 333 13.3
2007-10-02 05:34:49 51°16.013 2°53.562 331.3 12.5 332 13.1
2007-10-02 05:34:54 51°16.029 2°53.549 331.5 12.6 332 13.3
2007-10-02 05:34:59 51°16.044 2°53.536 331.6 12.5 333 13.2
2007-10-02 05:35:04 51°16.059 2°53.523 331.3 12.7 333 13.4
2007-10-02 05:35:09 51°16.075 2°53.51 331.4 12.6 333 13.2
2007-10-02 05:35:14 51°16.091 2°53.497 330.8 12.7 332 13.2
2007-10-02 05:35:19 51°16.106 2°53.485 331.4 12.7 333 13.4
2007-10-02 05:35:24 51°16.122 2°53.472 331.4 12.6 332 13.2
2007-10-02 05:35:29 51°16.137 2°53.459 331.2 12.6 333 13.4
2007-10-02 05:35:34 51°16.153 2°53.446 331 12.7 332 13.4
2007-10-02 05:35:38 51°16.165 2°53.435 331.2 12.6 332 13.1
2007-10-02 05:35:44 51°16.184 2°53.42 331 12.6 333 13.3
2007-10-02 05:35:49 51°16.199 2°53.407 331.5 12.6 333 13.3
2007-10-02 05:35:54 51°16.215 2°53.394 331.5 12.7 333 13.3
2007-10-02 05:35:58 51°16.227 2°53.384 331.6 12.8 333 13.8
2007-10-02 05:36:04 51°16.246 2°53.368 331.6 12.7 332 13.3
2007-10-02 05:36:09 51°16.262 2°53.355 331.3 12.6 333 13.4
2007-10-02 05:36:14 51°16.277 2°53.343 331.2 12.5 332 13
2007-10-02 05:36:19 51°16.293 2°53.33 331.1 12.6 332 13.4
2007-10-02 05:36:24 51°16.308 2°53.316 330.9 12.6 332 13.2
2007-10-02 05:36:29 51°16.323 2°53.304 330.8 12.6 332 13.2
2007-10-02 05:36:34 51°16.339 2°53.291 330.8 12.6 332 13.4
2007-10-02 05:36:39 51°16.354 2°53.278 331.2 12.6 333 13.4
2007-10-02 05:36:44 51°16.37 2°53.265 331.3 12.6 332 13.2
2007-10-02 05:36:49 51°16.385 2°53.253 331.6 12.7 333 13.5
2007-10-02 05:36:54 51°16.401 2°53.24 331.5 12.6 333 13.3
2007-10-02 05:36:58 51°16.413 2°53.229 331.1 12.6 333 13.2
2007-10-02 05:37:04 51°16.432 2°53.214 330.8 12.6 332 13.7
2007-10-02 05:37:09 51°16.447 2°53.201 331 12.7 333 13.7
2007-10-02 05:37:14 51°16.463 2°53.188 331.2 12.6 332 13.2
2007-10-02 05:37:19 51°16.479 2°53.175 331.1 12.7 333 13.4
2007-10-02 05:37:24 51°16.494 2°53.162 331.5 12.7 332 13.3
2007-10-02 05:37:29 51°16.51 2°53.149 331.4 12.7 332 13.3
2007-10-02 05:37:34 51°16.525 2°53.136 331.2 12.6 332 13.1
2007-10-02 05:37:39 51°16.541 2°53.122 330.6 12.8 332 13.6
2007-10-02 05:37:44 51°16.557 2°53.109 330.8 12.7 332 13.1
2007-10-02 05:37:49 51°16.572 2°53.096 330.9 12.8 332 13.6
2007-10-02 05:37:54 51°16.588 2°53.083 330.9 12.7 332 13.2
2007-10-02 05:37:58 51°16.6 2°53.073 331.1 12.7 332 13.1
2007-10-02 05:38:04 51°16.619 2°53.057 330.9 12.7 331 13.3
2007-10-02 05:38:09 51°16.634 2°53.043 330.6 12.8 332 13.4
2007-10-02 05:38:14 51°16.649 2°53.03 330.8 12.6 332 12.9
2007-10-02 05:38:19 51°16.665 2°53.017 331 12.7 332 13
2007-10-02 05:38:24 51°16.68 2°53.003 330.9 12.7 332 13
2007-10-02 05:38:29 51°16.696 2°52.99 331.1 12.6 331 12.6
2007-10-02 05:38:34 51°16.711 2°52.977 330.4 12.6 331 13.2
2007-10-02 05:38:39 51°16.727 2°52.963 330.2 12.7 331 12.9
2007-10-02 05:38:44 51°16.742 2°52.95 330.5 12.7 332 12.7
2007-10-02 05:38:49 51°16.758 2°52.937 330.5 12.7 332 12.5
2007-10-02 05:38:54 51°16.774 2°52.924 330.6 12.7 333 12.1
2007-10-02 05:38:59 51°16.789 2°52.91 330.8 12.8 332 11.7
2007-10-02 05:39:04 51°16.805 2°52.896 331.2 12.9 332 11.5
2007-10-02 05:39:09 51°16.82 2°52.883 331.6 12.7 332 11.1
2007-10-02 05:39:14 51°16.836 2°52.87 331.5 12.6 332 11
2007-10-02 05:39:18 51°16.848 2°52.86 331.1 12.7 332 11.1
2007-10-02 05:39:24 51°16.867 2°52.844 331 12.8 332 11
2007-10-02 05:39:29 51°16.883 2°52.831 331.4 12.8 333 10.9
2007-10-02 05:39:34 51°16.898 2°52.818 330.6 12.8 331 10.9
2007-10-02 05:39:39 51°16.914 2°52.805 330.9 12.8 332 11.1
2007-10-02 05:39:44 51°16.929 2°52.791 330.4 12.8 331 11.2
2007-10-02 05:39:49 51°16.945 2°52.778 330.8 12.8 332 11.4
2007-10-02 05:39:54 51°16.961 2°52.764 330.9 12.8 331 11.4
2007-10-02 05:39:59 51°16.976 2°52.751 330.8 12.9 332 11.5
2007-10-02 05:40:04 51°16.992 2°52.738 331.3 12.9 332 11.7
2007-10-02 05:40:09 51°17.008 2°52.724 330.9 12.8 331 11.5
2007-10-02 05:40:14 51°17.023 2°52.71 330.4 12.8 331 11.9
2007-10-02 05:40:19 51°17.039 2°52.697 330.7 12.9 331 12
2007-10-02 05:40:24 51°17.055 2°52.683 330.9 12.8 332 11.7
2007-10-02 05:40:29 51°17.07 2°52.67 330.9 12.8 332 11.7
2007-10-02 05:40:34 51°17.086 2°52.657 331.5 12.9 332 11.6
2007-10-02 05:40:38 51°17.098 2°52.646 331.4 12.7 331 11.2
2007-10-02 05:40:44 51°17.117 2°52.63 331.4 12.8 332 11.5
2007-10-02 05:40:49 51°17.132 2°52.616 331.6 12.7 331 11.3
2007-10-02 05:40:54 51°17.148 2°52.603 331.1 12.7 331 11.4
2007-10-02 05:40:58 51°17.16 2°52.592 331.3 12.7 331 11.6
2007-10-02 05:41:04 51°17.178 2°52.576 331.1 12.6 331 11.4
2007-10-02 05:41:09 51°17.193 2°52.562 331.1 12.6 331 11.6
2007-10-02 05:41:14 51°17.209 2°52.549 331.1 12.6 331 11.6
2007-10-02 05:41:19 51°17.224 2°52.536 330.9 12.6 331 11.5
2007-10-02 05:41:24 51°17.239 2°52.522 331 12.6 331 12
2007-10-02 05:41:29 51°17.255 2°52.509 330.8 12.6 331 12
2007-10-02 05:41:34 51°17.27 2°52.495 330.5 12.6 331 11.8
2007-10-02 05:41:39 51°17.285 2°52.482 330.4 12.7 331 11.9
2007-10-02 05:41:44 51°17.301 2°52.467 330.4 12.7 331 12
2007-10-02 05:41:49 51°17.316 2°52.454 330.3 12.7 331 11.9
2007-10-02 05:41:54 51°17.331 2°52.441 330.9 12.7 332 12.3
2007-10-02 05:41:58 51°17.344 2°52.43 331 12.8 331 12.1
2007-10-02 05:42:04 51°17.363 2°52.414 331.1 12.7 332 12
2007-10-02 05:42:09 51°17.378 2°52.4 331.2 12.7 331 11.9
2007-10-02 05:42:14 51°17.393 2°52.386 331.4 12.8 331 12.3
2007-10-02 05:42:19 51°17.409 2°52.373 331.3 12.8 332 12.1
2007-10-02 05:42:24 51°17.425 2°52.361 331.6 12.7 332 12.2
2007-10-02 05:42:29 51°17.44 2°52.347 331.6 12.7 332 12.1
2007-10-02 05:42:34 51°17.456 2°52.334 331.2 12.8 333 12.2
2007-10-02 05:42:39 51°17.472 2°52.321 331.6 12.9 332 12.3
2007-10-02 05:42:44 51°17.488 2°52.308 331.3 12.9 333 12.4
2007-10-02 05:42:49 51°17.504 2°52.295 331.7 12.9 333 12.2
2007-10-02 05:42:54 51°17.52 2°52.282 331.6 12.9 332 12.2
2007-10-02 05:42:58 51°17.532 2°52.271 331.5 12.9 332 12.1
2007-10-02 05:43:04 51°17.551 2°52.255 331.5 12.9 332 12.4
2007-10-02 05:43:09 51°17.567 2°52.242 331.6 12.9 333 12.3
2007-10-02 05:43:14 51°17.583 2°52.228 331 12.7 332 12.1
2007-10-02 05:43:19 51°17.598 2°52.215 331.5 12.8 333 12.2
2007-10-02 05:43:24 51°17.614 2°52.202 332.1 12.8 332 11.9
2007-10-02 05:43:29 51°17.63 2°52.19 331.7 12.8 333 12.4
2007-10-02 05:43:34 51°17.646 2°52.176 331.8 12.8 333 12.1
2007-10-02 05:43:39 51°17.661 2°52.163 331.6 12.8 332 12.1
2007-10-02 05:43:44 51°17.677 2°52.15 331.5 12.9 333 12.2
2007-10-02 05:43:49 51°17.693 2°52.137 331 12.8 332 12.2
2007-10-02 05:43:54 51°17.709 2°52.123 331.4 12.8 332 12
2007-10-02 05:43:59 51°17.724 2°52.11 331.4 12.7 332 12
2007-10-02 05:44:04 51°17.74 2°52.096 330.7 12.9 331 12.2
2007-10-02 05:44:09 51°17.755 2°52.083 330.6 12.7 332 11.8
2007-10-02 05:44:14 51°17.771 2°52.07 330.6 12.7 332 12.1
2007-10-02 05:44:18 51°17.784 2°52.06 330.9 12.8 332 12.1
2007-10-02 05:44:24 51°17.802 2°52.044 331 12.8 333 12
2007-10-02 05:44:29 51°17.818 2°52.031 331.3 12.9 333 12.2
2007-10-02 05:44:34 51°17.834 2°52.018 331.6 12.9 333 12.1
2007-10-02 05:44:39 51°17.85 2°52.004 331.6 12.9 333 12.1
2007-10-02 05:44:44 51°17.866 2°51.991 331.2 12.9 333 12
2007-10-02 05:44:49 51°17.882 2°51.978 331.6 12.9 333 12.3
2007-10-02 05:44:54 51°17.898 2°51.965 331.7 12.9 333 12.3
2007-10-02 05:44:59 51°17.913 2°51.952 331.4 13 332 12.2
2007-10-02 05:45:04 51°17.929 2°51.939 331.1 12.9 333 12.3
2007-10-02 05:45:09 51°17.945 2°51.926 331.5 13 332 12
2007-10-02 05:45:14 51°17.961 2°51.912 331.4 12.9 332 12.3
2007-10-02 05:45:19 51°17.977 2°51.9 331.8 13 333 12.3
2007-10-02 05:45:24 51°17.993 2°51.887 331.8 12.9 333 12.1
2007-10-02 05:45:29 51°18.009 2°51.874 332.1 12.9 334 12.4
2007-10-02 05:45:34 51°18.025 2°51.861 332 12.9 333 12.1
2007-10-02 05:45:38 51°18.038 2°51.851 331.6 13 334 12.4
2007-10-02 05:45:44 51°18.058 2°51.835 331.8 13.1 333 12.5
2007-10-02 05:45:49 51°18.074 2°51.823 332 13 334 12.3
2007-10-02 05:45:54 51°18.09 2°51.81 331.9 13 334 12.5
2007-10-02 05:45:58 51°18.103 2°51.8 331.9 12.8 335 12.2
2007-10-02 05:46:04 51°18.122 2°51.785 331.6 12.8 334 12.6
2007-10-02 05:46:09 51°18.138 2°51.772 331.6 12.9 334 12.6
2007-10-02 05:46:14 51°18.155 2°51.76 332 12.9 334 12.8
2007-10-02 05:46:19 51°18.17 2°51.747 330.9 12.8 332 12.8
2007-10-02 05:46:24 51°18.186 2°51.734 330.8 12.9 333 13.1
2007-10-02 05:46:29 51°18.201 2°51.72 330.7 12.8 331 13
2007-10-02 05:46:34 51°18.217 2°51.707 330 12.9 331 13
2007-10-02 05:46:39 51°18.233 2°51.693 330.2 12.8 331 13.2
2007-10-02 05:46:44 51°18.248 2°51.679 330.2 12.9 332 13.4
2007-10-02 05:46:49 51°18.264 2°51.666 330.7 12.9 332 13.2
2007-10-02 05:46:54 51°18.28 2°51.653 330.6 12.9 332 13.4
2007-10-02 05:46:58 51°18.293 2°51.642 331.4 12.9 333 13.3
2007-10-02 05:47:04 51°18.312 2°51.627 331.5 12.8 333 13.6
2007-10-02 05:47:09 51°18.328 2°51.614 331.8 12.8 333 13.7
2007-10-02 05:47:14 51°18.344 2°51.601 331.9 12.9 333 13.9
2007-10-02 05:47:19 51°18.36 2°51.588 331.3 12.9 333 14
2007-10-02 05:47:24 51°18.376 2°51.574 331.4 12.9 332 13.8
2007-10-02 05:47:29 51°18.392 2°51.561 331.1 13 333 14.2
2007-10-02 05:47:34 51°18.408 2°51.548 331.1 12.9 333 14.3
2007-10-02 05:47:39 51°18.423 2°51.535 331.7 12.9 333 14.3
2007-10-02 05:47:44 51°18.439 2°51.522 331.7 12.9 333 14.4
2007-10-02 05:47:49 51°18.455 2°51.509 331.6 12.9 333 14.6
2007-10-02 05:47:54 51°18.471 2°51.496 331.5 12.9 333 14.7
2007-10-02 05:47:58 51°18.484 2°51.485 331.4 12.9 333 14.7
2007-10-02 05:48:04 51°18.503 2°51.47 331.6 12.9 333 14.9
2007-10-02 05:48:09 51°18.519 2°51.457 331.6 13 334 14.9
2007-10-02 05:48:14 51°18.536 2°51.444 332 13 333 15
2007-10-02 05:48:19 51°18.552 2°51.431 332 13 333 15.2
2007-10-02 05:48:24 51°18.568 2°51.418 331.8 12.9 333 15
2007-10-02 05:48:29 51°18.583 2°51.405 331.4 13 333 15.2
2007-10-02 05:48:34 51°18.6 2°51.392 331.4 13 333 15.4
2007-10-02 05:48:39 51°18.615 2°51.379 331.5 12.9 333 15.4
2007-10-02 05:48:44 51°18.631 2°51.366 331.9 12.8 332 15.4
2007-10-02 05:48:49 51°18.647 2°51.353 331.2 12.8 332 15.6
2007-10-02 05:48:54 51°18.663 2°51.339 331.5 12.8 332 15.7
2007-10-02 05:48:58 51°18.675 2°51.328 331 12.8 332 15.6
2007-10-02 05:49:04 51°18.694 2°51.313 331.1 12.9 333 15.8
2007-10-02 05:49:09 51°18.71 2°51.299 331.4 12.9 332 15.7
2007-10-02 05:49:14 51°18.726 2°51.286 330.9 12.9 333 15.8
2007-10-02 05:49:19 51°18.742 2°51.273 331.3 12.9 333 16
2007-10-02 05:49:24 51°18.758 2°51.26 331.2 12.9 333 16.1
2007-10-02 05:49:29 51°18.774 2°51.246 331.5 12.8 332 15.8
2007-10-02 05:49:34 51°18.789 2°51.233 330.9 12.9 332 16.1
2007-10-02 05:49:39 51°18.805 2°51.22 331 12.8 332 16
2007-10-02 05:49:44 51°18.821 2°51.207 331.2 12.7 332 16.1
2007-10-02 05:49:49 51°18.836 2°51.194 330.9 12.9 333 16.3
2007-10-02 05:49:54 51°18.852 2°51.181 331.4 12.8 332 16.2
2007-10-02 05:49:59 51°18.868 2°51.168 331.2 12.9 332 16.3
2007-10-02 05:50:04 51°18.883 2°51.154 331.1 12.7 331 16.2
2007-10-02 05:50:09 51°18.899 2°51.141 330.6 12.6 331 16.5
2007-10-02 05:50:14 51°18.914 2°51.127 330.1 12.6 331 16.3
2007-10-02 05:50:18 51°18.927 2°51.117 330.2 12.7 333 16.4
2007-10-02 05:50:24 51°18.945 2°51.1 330.4 12.8 331 16.4
2007-10-02 05:50:29 51°18.961 2°51.087 330.6 12.9 333 16.6
2007-10-02 05:50:34 51°18.977 2°51.073 330.9 12.9 331 16.4
2007-10-02 05:50:39 51°18.992 2°51.06 330.9 13 332 16.3
2007-10-02 05:50:44 51°19.008 2°51.047 330.8 12.9 332 16.5
2007-10-02 05:50:49 51°19.024 2°51.033 331.1 12.9 332 16.7
2007-10-02 05:50:54 51°19.04 2°51.02 331.3 12.8 332 16.3
2007-10-02 05:50:59 51°19.055 2°51.006 331.2 12.8 332 16.6
2007-10-02 05:51:04 51°19.071 2°50.993 331 12.9 332 16.6
2007-10-02 05:51:09 51°19.087 2°50.98 331.3 12.8 332 16.4
2007-10-02 05:51:14 51°19.102 2°50.966 331.2 12.8 331 16.4
2007-10-02 05:51:19 51°19.118 2°50.953 331 12.9 332 16.6
2007-10-02 05:51:24 51°19.134 2°50.939 331.4 12.9 332 16.5
2007-10-02 05:51:29 51°19.15 2°50.926 331.2 12.9 332 16.3
2007-10-02 05:51:34 51°19.165 2°50.913 331.1 12.8 333 16.2
2007-10-02 05:51:38 51°19.178 2°50.902 330.9 12.9 332 16.4
2007-10-02 05:51:44 51°19.197 2°50.886 331.5 12.7 333 16.2
2007-10-02 05:51:49 51°19.213 2°50.873 331.6 12.7 332 16
2007-10-02 05:51:54 51°19.228 2°50.86 330.9 12.7 332 16
2007-10-02 05:51:58 51°19.241 2°50.849 330.9 12.8 331 16.3
2007-10-02 05:52:04 51°19.259 2°50.833 330.6 12.7 332 15.8
2007-10-02 05:52:09 51°19.275 2°50.82 330.9 12.8 332 15.9
2007-10-02 05:52:14 51°19.29 2°50.806 331.4 12.9 332 16
2007-10-02 05:52:19 51°19.306 2°50.793 331.5 12.9 332 16.1
2007-10-02 05:52:25 51°19.324 2°50.777 331.6 12.6 331 15.3
2007-10-02 05:52:29 51°19.336 2°50.766 331.2 12.6 331 15.7
2007-10-02 05:52:34 51°19.352 2°50.754 331.6 12.5 333 15.3
2007-10-02 05:52:39 51°19.368 2°50.74 331.3 12.6 331 15.2
2007-10-02 05:52:44 51°19.383 2°50.727 331.6 12.6 333 14.8
2007-10-02 05:52:49 51°19.398 2°50.713 331.4 12.6 330 14.7
2007-10-02 05:52:54 51°19.414 2°50.7 331 12.7 331 14.8
2007-10-02 05:52:58 51°19.426 2°50.689 330.8 12.7 331 14.4
2007-10-02 05:53:04 51°19.445 2°50.673 330.9 12.8 332 14.4
2007-10-02 05:53:09 51°19.46 2°50.659 331.3 12.7 331 14.2
2007-10-02 05:53:14 51°19.476 2°50.646 331.8 12.9 332 14.5
2007-10-02 05:53:19 51°19.491 2°50.633 331.6 12.8 331 13.8
2007-10-02 05:53:24 51°19.506 2°50.62 331.1 12.6 331 13.8
2007-10-02 05:53:29 51°19.521 2°50.606 331.3 12.5 331 13.9
2007-10-02 05:53:34 51°19.537 2°50.592 330.9 12.5 331 13.6
2007-10-02 05:53:39 51°19.552 2°50.58 331.2 12.5 333 13.4
2007-10-02 05:53:44 51°19.567 2°50.566 330.9 12.8 331 13.6
2007-10-02 05:53:49 51°19.583 2°50.553 331.8 12.7 332 13.8
2007-10-02 05:53:54 51°19.598 2°50.54 331.7 12.6 332 13.2
2007-10-02 05:53:58 51°19.611 2°50.529 331.6 12.4 332 12.9
2007-10-02 05:54:04 51°19.629 2°50.514 331.6 12.5 331 13.6
2007-10-02 05:54:09 51°19.644 2°50.501 331.2 12.5 332 13.6
2007-10-02 05:54:14 51°19.66 2°50.487 331.3 12.7 332 13.7
2007-10-02 05:54:19 51°19.675 2°50.474 331.1 12.7 332 13.7
2007-10-02 05:54:25 51°19.694 2°50.459 331.2 12.8 332 14.1
2007-10-02 05:54:29 51°19.707 2°50.448 331.3 12.9 333 14.4
2007-10-02 05:54:34 51°19.722 2°50.435 331.7 12.8 332 14.6
2007-10-02 05:54:39 51°19.738 2°50.422 332 12.8 332 14.7
2007-10-02 05:54:44 51°19.754 2°50.409 331.6 12.7 332 14.6
2007-10-02 05:54:49 51°19.77 2°50.396 331.2 12.8 332 14.8
2007-10-02 05:54:54 51°19.785 2°50.382 331.3 12.8 332 15
2007-10-02 05:54:59 51°19.801 2°50.369 331.4 12.8 332 15.2
2007-10-02 05:55:04 51°19.817 2°50.355 331.5 12.9 332 15.3
2007-10-02 05:55:09 51°19.833 2°50.342 331.7 13 332 15.4
2007-10-02 05:55:14 51°19.848 2°50.329 331.3 12.7 332 15.2
2007-10-02 05:55:18 51°19.861 2°50.319 331.1 12.7 332 15.6
2007-10-02 05:55:24 51°19.879 2°50.303 330.9 12.8 333 15.6
2007-10-02 05:55:29 51°19.895 2°50.289 331.2 12.8 332 15.3
2007-10-02 05:55:34 51°19.91 2°50.275 330.6 12.8 331 15.3
2007-10-02 05:55:39 51°19.926 2°50.262 330.9 12.8 331 15.5
2007-10-02 05:55:44 51°19.942 2°50.248 331.1 12.9 332 15.6
2007-10-02 05:55:49 51°19.958 2°50.235 330.9 12.9 333 15.6
2007-10-02 05:55:54 51°19.974 2°50.222 331.3 12.9 333 15.8
2007-10-02 05:55:59 51°19.99 2°50.209 331.6 13.1 333 16.3
2007-10-02 05:56:04 51°20.006 2°50.197 332.1 12.8 334 16.1
2007-10-02 05:56:09 51°20.021 2°50.184 331.3 12.8 333 16.6
2007-10-02 05:56:14 51°20.037 2°50.171 331.6 12.8 334 16.8
2007-10-02 05:56:19 51°20.053 2°50.158 331.9 12.8 333 17.1
2007-10-02 05:56:24 51°20.07 2°50.146 332.3 13 333 17.5
2007-10-02 05:56:29 51°20.085 2°50.132 330.6 12.6 330 17.5
2007-10-02 05:56:34 51°20.1 2°50.117 327.3 12.6 329 17.5
2007-10-02 05:56:38 51°20.112 2°50.106 326.6 12.6 329 17.9
2007-10-02 05:56:44 51°20.13 2°50.088 325.1 12.7 327 18.1
2007-10-02 05:56:49 51°20.144 2°50.072 324.4 12.7 326 18.5
2007-10-02 05:56:54 51°20.159 2°50.056 322.9 12.7 325 18.6
2007-10-02 05:56:58 51°20.17 2°50.043 322.8 12.9 325 19.2
2007-10-02 05:57:04 51°20.188 2°50.023 322.4 12.7 324 19.1
2007-10-02 05:57:09 51°20.202 2°50.007 321.8 12.8 326 19.4
2007-10-02 05:57:14 51°20.217 2°49.991 322 12.7 324 19.4
2007-10-02 05:57:19 51°20.231 2°49.975 321.5 12.7 324 19.9
2007-10-02 05:57:24 51°20.246 2°49.958 321.3 12.8 325 20.2
2007-10-02 05:57:29 51°20.26 2°49.942 322 12.9 326 20.4
2007-10-02 05:57:34 51°20.275 2°49.926 322.7 12.8 326 20.4
2007-10-02 05:57:39 51°20.29 2°49.91 323 12.7 325 20.8
2007-10-02 05:57:44 51°20.304 2°49.894 322.3 12.9 324 21.2
2007-10-02 05:57:49 51°20.319 2°49.878 322 12.8 326 21.2
2007-10-02 05:57:54 51°20.333 2°49.862 322.2 12.8 324 21.2
2007-10-02 05:57:59 51°20.348 2°49.845 321.7 12.8 326 21.7
2007-10-02 05:58:04 51°20.362 2°49.829 322.1 12.6 325 21.7
2007-10-02 05:58:09 51°20.377 2°49.814 322.1 12.7 326 21.9
2007-10-02 05:58:14 51°20.392 2°49.798 322.5 12.9 327 22.4
2007-10-02 05:58:18 51°20.403 2°49.785 323 12.8 326 22.5
2007-10-02 05:58:24 51°20.421 2°49.766 323 12.8 327 22.9
2007-10-02 05:58:29 51°20.436 2°49.75 322.9 12.8 326 23
2007-10-02 05:58:34 51°20.451 2°49.734 322.7 12.9 326 23.4
2007-10-02 05:58:39 51°20.466 2°49.718 322.7 13 325 23.5
2007-10-02 05:58:44 51°20.481 2°49.703 322.9 12.9 327 23.6
2007-10-02 05:58:49 51°20.495 2°49.686 322.5 13 326 24
2007-10-02 05:58:54 51°20.511 2°49.671 322.8 12.9 327 23.8
2007-10-02 05:58:59 51°20.525 2°49.655 323.1 12.8 326 23.9
2007-10-02 05:59:04 51°20.541 2°49.639 322 13 327 24
2007-10-02 05:59:09 51°20.556 2°49.623 323.1 12.9 327 24.1
2007-10-02 05:59:14 51°20.571 2°49.608 323.3 12.9 328 24
2007-10-02 05:59:19 51°20.586 2°49.592 324.1 13 328 24.2
2007-10-02 05:59:24 51°20.601 2°49.576 323.7 13 326 24
2007-10-02 05:59:29 51°20.616 2°49.561 323.3 12.8 326 24.1
2007-10-02 05:59:34 51°20.63 2°49.544 322.6 12.8 325 24
2007-10-02 05:59:38 51°20.642 2°49.531 322.6 12.8 324 24.3
2007-10-02 05:59:44 51°20.66 2°49.512 322.2 12.9 326 24.1
2007-10-02 05:59:49 51°20.674 2°49.496 322.3 12.7 325 23.9
2007-10-02 05:59:54 51°20.689 2°49.479 322.6 12.8 326 24.4
2007-10-02 05:59:58 51°20.7 2°49.465 321.4 12.8 323 24.2
2007-10-02 06:00:04 51°20.717 2°49.446 322.2 12.7 325 24.1
2007-10-02 06:00:09 51°20.731 2°49.429 322.5 12.7 324 24.2
2007-10-02 06:00:14 51°20.746 2°49.414 322.9 12.6 326 24.4
2007-10-02 06:00:19 51°20.76 2°49.398 322.9 12.4 324 24.3
2007-10-02 06:00:24 51°20.774 2°49.383 323.5 12.2 326 24.3
2007-10-02 06:00:29 51°20.787 2°49.367 323.2 12.1 325 24.4
2007-10-02 06:00:34 51°20.801 2°49.352 323.3 12.1 326 24.1
2007-10-02 06:00:39 51°20.815 2°49.337 323.4 11.9 325 24.3
2007-10-02 06:00:44 51°20.828 2°49.322 323.1 11.9 324 24
2007-10-02 06:00:49 51°20.842 2°49.307 322.9 11.9 326 24.1
2007-10-02 06:00:54 51°20.855 2°49.292 323.3 11.9 325 24
2007-10-02 06:00:59 51°20.869 2°49.277 323.5 11.7 325 24.2
2007-10-02 06:01:04 51°20.882 2°49.263 323.6 11.8 326 24.2
2007-10-02 06:01:09 51°20.896 2°49.248 323.7 11.7 325 24.1
2007-10-02 06:01:14 51°20.909 2°49.233 323.7 11.6 326 23.7
2007-10-02 06:01:19 51°20.922 2°49.218 323.6 11.6 325 23.9
2007-10-02 06:01:24 51°20.936 2°49.204 323.2 11.6 325 23.6
2007-10-02 06:01:29 51°20.949 2°49.189 322.9 11.7 325 23.7
2007-10-02 06:01:34 51°20.962 2°49.173 323 11.7 324 23.7
2007-10-02 06:01:39 51°20.975 2°49.158 323.2 11.5 323 23.8
2007-10-02 06:01:44 51°20.987 2°49.143 323.1 10.9 320 23.4
2007-10-02 06:01:49 51°20.998 2°49.127 319.1 10.9 321 22.7
2007-10-02 06:01:54 51°21.01 2°49.112 317.4 10.8 320 23
2007-10-02 06:01:59 51°21.021 2°49.095 316.6 10.8 317 23.1
2007-10-02 06:02:04 51°21.032 2°49.079 315.7 10.9 318 23.3
2007-10-02 06:02:09 51°21.043 2°49.062 314.6 10.8 316 23.3
2007-10-02 06:02:14 51°21.053 2°49.045 314 10.9 315 23.3
2007-10-02 06:02:19 51°21.064 2°49.028 313.3 10.8 314 21.9
2007-10-02 06:02:24 51°21.074 2°49.01 312.6 10.9 315 21.2
2007-10-02 06:02:29 51°21.084 2°48.993 312.3 10.9 315 21.9
2007-10-02 06:02:34 51°21.095 2°48.975 312 10.9 313 22
2007-10-02 06:02:39 51°21.105 2°48.958 312 10.9 314 22
2007-10-02 06:02:44 51°21.116 2°48.941 312.1 10.8 316 22.1
2007-10-02 06:02:49 51°21.127 2°48.925 312.8 10.9 314 22
2007-10-02 06:02:54 51°21.137 2°48.907 312.2 10.9 315 21.9
2007-10-02 06:02:59 51°21.149 2°48.89 313.2 11.1 316 22
2007-10-02 06:03:04 51°21.159 2°48.872 313.1 11.2 314 22
2007-10-02 06:03:09 51°21.171 2°48.855 313.5 11.4 314 21.9
2007-10-02 06:03:14 51°21.182 2°48.836 312.5 11.5 315 22
2007-10-02 06:03:19 51°21.193 2°48.818 312.1 11.6 315 21.9
2007-10-02 06:03:24 51°21.204 2°48.799 312.2 11.8 313 22.3
2007-10-02 06:03:29 51°21.216 2°48.78 312.8 11.8 314 22.2
2007-10-02 06:03:34 51°21.227 2°48.761 312 11.9 314 22.2
2007-10-02 06:03:39 51°21.239 2°48.742 312 12 314 22.3
2007-10-02 06:03:44 51°21.25 2°48.723 312.3 12 315 22.2
2007-10-02 06:03:49 51°21.262 2°48.704 312.5 12.1 315 22.5
2007-10-02 06:03:54 51°21.274 2°48.684 312.5 12.2 314 22.5
2007-10-02 06:03:59 51°21.286 2°48.665 312.5 12.2 315 22.4
2007-10-02 06:04:04 51°21.297 2°48.645 312.6 12.2 314 22.4
2007-10-02 06:04:09 51°21.31 2°48.627 313.6 12.3 315 22.4
2007-10-02 06:04:14 51°21.321 2°48.606 311.9 12.2 314 22.6
2007-10-02 06:04:19 51°21.334 2°48.588 313.1 12.3 317 22.5
2007-10-02 06:04:24 51°21.345 2°48.568 312.3 12.4 314 22.8
2007-10-02 06:04:29 51°21.358 2°48.549 313.8 12.4 317 22.8
2007-10-02 06:04:34 51°21.37 2°48.53 313.3 12.3 313 23
2007-10-02 06:04:38 51°21.379 2°48.514 312.9 12.2 315 22.7
2007-10-02 06:04:44 51°21.393 2°48.491 312.5 12.2 312 23.2
2007-10-02 06:04:49 51°21.405 2°48.471 311.2 12.2 315 23.2
2007-10-02 06:04:54 51°21.417 2°48.452 312.4 12.1 314 23.1
2007-10-02 06:04:58 51°21.426 2°48.436 311.7 12.1 315 23.5
2007-10-02 06:05:04 51°21.44 2°48.413 312.7 12.2 314 23.7
2007-10-02 06:05:09 51°21.452 2°48.394 313.1 12.2 315 23.6
2007-10-02 06:05:14 51°21.464 2°48.375 312.8 12.2 314 23.8
2007-10-02 06:05:19 51°21.476 2°48.355 313.4 12.4 314 23.9
2007-10-02 06:05:24 51°21.489 2°48.336 313.7 12.3 318 24
2007-10-02 06:05:29 51°21.501 2°48.317 314.3 12.1 314 24
2007-10-02 06:05:34 51°21.513 2°48.3 314.8 12 318 23.7
2007-10-02 06:05:39 51°21.525 2°48.28 314 12.1 314 24.3
2007-10-02 06:05:44 51°21.538 2°48.262 315.4 12.2 317 23.9
2007-10-02 06:05:49 51°21.549 2°48.243 314.1 12.3 316 23.8
2007-10-02 06:05:54 51°21.562 2°48.224 315 12.3 317 24.4
2007-10-02 06:05:59 51°21.575 2°48.207 316.9 12.4 319 24.5
2007-10-02 06:06:04 51°21.588 2°48.188 317.1 12.4 321 24.5
2007-10-02 06:06:09 51°21.602 2°48.172 319.7 12.4 322 24.4
2007-10-02 06:06:14 51°21.615 2°48.155 319.3 12.5 321 24.6
2007-10-02 06:06:18 51°21.627 2°48.142 320.9 12.6 323 24.3
2007-10-02 06:06:24 51°21.644 2°48.122 321.7 12.5 325 24.4
2007-10-02 06:06:29 51°21.658 2°48.107 323.9 12.7 327 24.5
2007-10-02 06:06:34 51°21.673 2°48.093 325.9 12.5 328 24.4
2007-10-02 06:06:39 51°21.688 2°48.079 326.9 12.5 330 24.5
2007-10-02 06:06:44 51°21.704 2°48.065 327.3 12.6 331 24.7
2007-10-02 06:06:49 51°21.719 2°48.051 328.7 12.6 330 24.3
2007-10-02 06:06:54 51°21.734 2°48.038 328.9 12.7 331 24.2
2007-10-02 06:06:59 51°21.749 2°48.024 328.9 12.6 329 24.3
2007-10-02 06:07:04 51°21.765 2°48.01 328.6 12.6 330 24.4
2007-10-02 06:07:09 51°21.78 2°47.997 328.4 12.5 333 24.6
2007-10-02 06:07:14 51°21.795 2°47.984 329.9 12.6 333 25
2007-10-02 06:07:19 51°21.811 2°47.971 330.4 12.7 332 25.4
2007-10-02 06:07:24 51°21.826 2°47.958 329.8 12.6 332 24.7
2007-10-02 06:07:29 51°21.842 2°47.944 329.9 12.5 331 25
2007-10-02 06:07:34 51°21.857 2°47.93 328.6 12.5 330 25.4
2007-10-02 06:07:38 51°21.869 2°47.921 328.9 12.6 332 25.2
2007-10-02 06:07:44 51°21.888 2°47.904 329.3 12.4 332 24.8
2007-10-02 06:07:49 51°21.903 2°47.892 330.4 12.3 333 24.6
2007-10-02 06:07:54 51°21.918 2°47.88 330.7 12.2 333 25.1
2007-10-02 06:07:58 51°21.93 2°47.87 331.8 12.4 334 24.8
2007-10-02 06:08:04 51°21.949 2°47.856 332.3 12.5 334 24.6
2007-10-02 06:08:09 51°21.965 2°47.843 332.3 12.6 334 25
2007-10-02 06:08:14 51°21.981 2°47.832 333.1 12.5 335 25.1
2007-10-02 06:08:19 51°21.996 2°47.82 333.1 12.4 333 24.9
2007-10-02 06:08:25 51°22.015 2°47.806 332.9 12.5 335 25.1
2007-10-02 06:08:29 51°22.028 2°47.797 332.5 12.4 337 24.8
2007-10-02 06:08:34 51°22.043 2°47.786 333.3 12.5 335 25.2
2007-10-02 06:08:39 51°22.059 2°47.774 332.2 12.6 335 25.2
2007-10-02 06:08:44 51°22.076 2°47.762 332.9 12.8 336 25.3
2007-10-02 06:08:49 51°22.091 2°47.75 333 12.6 336 24.8
2007-10-02 06:08:54 51°22.107 2°47.739 333.1 12.7 335 25.4
2007-10-02 06:08:59 51°22.124 2°47.727 333.1 12.8 336 24.5
2007-10-02 06:09:04 51°22.14 2°47.716 333.2 12.7 336 24.6
2007-10-02 06:09:09 51°22.156 2°47.704 333.8 12.8 335 24.3
2007-10-02 06:09:14 51°22.172 2°47.692 333.1 12.9 336 24.3
2007-10-02 06:09:19 51°22.188 2°47.681 333.4 12.8 336 24
2007-10-02 06:09:24 51°22.204 2°47.668 332.5 12.6 334 23.6
2007-10-02 06:09:29 51°22.22 2°47.656 332 12.6 335 23.5
2007-10-02 06:09:34 51°22.236 2°47.644 331.2 12.7 334 22.2
2007-10-02 06:09:39 51°22.252 2°47.632 332 12.8 335 22.9
2007-10-02 06:09:44 51°22.268 2°47.62 332.5 12.8 334 22.4
2007-10-02 06:09:49 51°22.284 2°47.608 332.6 12.8 336 22.3
2007-10-02 06:09:54 51°22.3 2°47.596 333.2 12.8 335 21.5
2007-10-02 06:09:59 51°22.316 2°47.585 333 12.7 337 20.5
2007-10-02 06:10:04 51°22.332 2°47.574 333.7 12.7 338 19.7
2007-10-02 06:10:09 51°22.349 2°47.563 333.1 12.7 336 18.2
2007-10-02 06:10:14 51°22.365 2°47.551 332.9 12.8 336 16.3
2007-10-02 06:10:19 51°22.381 2°47.54 333 12.8 337 15
2007-10-02 06:10:25 51°22.401 2°47.527 334.5 12.8 336 18.4
2007-10-02 06:10:29 51°22.414 2°47.517 332.7 12.9 334 19.8
2007-10-02 06:10:34 51°22.43 2°47.505 332.4 13 336 20.8
2007-10-02 06:10:39 51°22.446 2°47.493 332.4 12.9 335 20.6
2007-10-02 06:10:45 51°22.466 2°47.479 332.3 12.9 335 20.7
2007-10-02 06:10:49 51°22.479 2°47.469 331.9 13.1 336 20.6
2007-10-02 06:10:54 51°22.496 2°47.458 332.4 13.1 337 20.2
2007-10-02 06:10:59 51°22.512 2°47.446 333.1 12.9 336 19.6
2007-10-02 06:11:04 51°22.528 2°47.433 331.9 13.1 335 18.8
2007-10-02 06:11:09 51°22.545 2°47.422 332.1 13.1 336 15.4
2007-10-02 06:11:14 51°22.561 2°47.41 332.8 13.2 338 17.6
2007-10-02 06:11:19 51°22.578 2°47.398 332.7 13.1 335 19.1
2007-10-02 06:11:24 51°22.594 2°47.387 333 13 336 19.6
2007-10-02 06:11:29 51°22.611 2°47.374 331.9 12.9 334 19.4
2007-10-02 06:11:34 51°22.627 2°47.362 331.8 12.9 335 20.1
2007-10-02 06:11:38 51°22.64 2°47.352 331.8 12.9 336 20.2
2007-10-02 06:11:44 51°22.659 2°47.338 332.4 12.9 336 20.3
2007-10-02 06:11:49 51°22.676 2°47.326 333.1 13 335 20.4
2007-10-02 06:11:54 51°22.692 2°47.315 332.4 12.9 337 20.3
2007-10-02 06:11:58 51°22.706 2°47.305 332.5 13.1 335 20.7
2007-10-02 06:12:04 51°22.725 2°47.291 331.9 13.1 337 21.2
2007-10-02 06:12:09 51°22.742 2°47.279 332.8 13.1 336 21.5
2007-10-02 06:12:14 51°22.758 2°47.267 332.6 13 335 22.1
2007-10-02 06:12:19 51°22.775 2°47.254 332.4 13.1 335 22.1
2007-10-02 06:12:25 51°22.794 2°47.239 331.9 12.8 332 22.1
2007-10-02 06:12:29 51°22.806 2°47.229 331 12.9 334 20.6
2007-10-02 06:12:34 51°22.823 2°47.217 332.1 12.8 334 20.1
2007-10-02 06:12:39 51°22.839 2°47.204 332.2 12.9 335 20.3
2007-10-02 06:12:44 51°22.855 2°47.192 332.8 12.9 335 20.6
2007-10-02 06:12:49 51°22.871 2°47.18 331.8 12.9 334 20.8
2007-10-02 06:12:54 51°22.887 2°47.167 332.4 13 335 21.1
2007-10-02 06:12:59 51°22.904 2°47.155 333.2 13 335 21.2
2007-10-02 06:13:04 51°22.92 2°47.143 332.3 12.9 334 21.2
2007-10-02 06:13:09 51°22.936 2°47.131 333.1 13 336 20.8
2007-10-02 06:13:14 51°22.952 2°47.119 333.5 12.9 335 20.2
2007-10-02 06:13:18 51°22.965 2°47.109 333.2 13 334 19.6
2007-10-02 06:13:24 51°22.984 2°47.093 332.2 12.8 334 18.2
2007-10-02 06:13:29 51°23 2°47.081 332.3 12.8 335 16.9
2007-10-02 06:13:34 51°23.016 2°47.069 332.6 12.8 334 18
2007-10-02 06:13:39 51°23.032 2°47.056 331.9 12.7 334 19.1
2007-10-02 06:13:44 51°23.048 2°47.044 332.5 12.8 333 19.8
2007-10-02 06:13:49 51°23.064 2°47.031 332.6 12.9 336 20.7
2007-10-02 06:13:54 51°23.081 2°47.02 333.9 12.9 335 21
2007-10-02 06:13:59 51°23.096 2°47.008 333.9 12.6 335 21.3
2007-10-02 06:14:04 51°23.112 2°46.996 333.8 12.6 335 21.9
2007-10-02 06:14:09 51°23.129 2°46.984 333.9 12.8 336 22.9
2007-10-02 06:14:14 51°23.145 2°46.973 335.1 12.8 337 22.9
2007-10-02 06:14:19 51°23.161 2°46.961 334.9 12.7 336 23.6
2007-10-02 06:14:24 51°23.177 2°46.951 335.3 12.8 337 23.5
2007-10-02 06:14:29 51°23.194 2°46.939 335.2 12.9 336 24.1
2007-10-02 06:14:34 51°23.21 2°46.929 336.4 12.9 337 24.4
2007-10-02 06:14:38 51°23.223 2°46.919 336 12.7 337 24.2
2007-10-02 06:14:44 51°23.243 2°46.906 335.8 12.8 337 24.6
2007-10-02 06:14:49 51°23.259 2°46.895 335.9 12.8 336 24.7
2007-10-02 06:14:54 51°23.275 2°46.883 335.4 13 337 25.4
2007-10-02 06:14:58 51°23.288 2°46.874 335.8 12.9 336 25.5
2007-10-02 06:15:04 51°23.308 2°46.86 335.2 12.9 336 25.4
2007-10-02 06:15:09 51°23.324 2°46.848 335.2 12.8 335 25.5
2007-10-02 06:15:14 51°23.341 2°46.837 335 12.9 337 25.6
2007-10-02 06:15:19 51°23.357 2°46.826 335.4 12.7 337 25.6
2007-10-02 06:15:24 51°23.373 2°46.815 335.2 12.8 337 25.9
2007-10-02 06:15:29 51°23.39 2°46.804 336 12.6 338 25.5
2007-10-02 06:15:34 51°23.406 2°46.793 336.1 12.6 337 24.9
2007-10-02 06:15:39 51°23.422 2°46.782 336.1 12.6 338 25.2
2007-10-02 06:15:44 51°23.438 2°46.772 336.2 12.7 337 24.7
2007-10-02 06:15:49 51°23.454 2°46.76 335.3 12.8 337 24.7
2007-10-02 06:15:54 51°23.471 2°46.749 336.2 12.8 337 25.2
2007-10-02 06:15:59 51°23.487 2°46.739 335.6 12.9 338 25.7
2007-10-02 06:16:04 51°23.504 2°46.728 336.2 12.9 338 25.9
2007-10-02 06:16:09 51°23.52 2°46.718 336.9 12.9 339 26
2007-10-02 06:16:14 51°23.537 2°46.707 337.2 12.9 338 26.4
2007-10-02 06:16:18 51°23.551 2°46.699 338.8 12.9 341 25.6
2007-10-02 06:16:24 51°23.571 2°46.688 340.4 12.9 341 25.8
2007-10-02 06:16:29 51°23.588 2°46.679 341.3 12.9 341 26.3
2007-10-02 06:16:34 51°23.605 2°46.67 342.5 13 342 26.3
2007-10-02 06:16:39 51°23.622 2°46.662 343.1 12.9 343 26.2
2007-10-02 06:16:44 51°23.639 2°46.654 342.6 13 344 27
2007-10-02 06:16:49 51°23.657 2°46.646 343.9 12.7 345 27
2007-10-02 06:16:54 51°23.674 2°46.639 344 12.8 344 27.2
2007-10-02 06:16:59 51°23.691 2°46.632 344.5 12.9 347 27.3
2007-10-02 06:17:04 51°23.708 2°46.625 344.1 12.8 345 27.3
2007-10-02 06:17:09 51°23.726 2°46.619 344.4 12.8 346 28
2007-10-02 06:17:14 51°23.743 2°46.611 344.2 12.8 346 28.4
2007-10-02 06:17:18 51°23.757 2°46.605 344.5 12.9 345 28
2007-10-02 06:17:24 51°23.777 2°46.596 343.3 12.7 343 28
2007-10-02 06:17:29 51°23.794 2°46.587 342.1 12.8 342 28.4
2007-10-02 06:17:34 51°23.811 2°46.579 341.2 12.9 342 27.8
2007-10-02 06:17:39 51°23.828 2°46.571 340.9 12.8 343 27.4
2007-10-02 06:17:44 51°23.845 2°46.561 340.7 12.9 342 28.2
2007-10-02 06:17:49 51°23.862 2°46.554 341.3 12.9 344 28.6
2007-10-02 06:17:54 51°23.879 2°46.545 340.6 12.8 342 28.7
2007-10-02 06:17:59 51°23.896 2°46.537 340.7 12.8 343 28.3
2007-10-02 06:18:04 51°23.913 2°46.529 340.7 12.7 344 28.6
2007-10-02 06:18:09 51°23.93 2°46.52 340.7 12.8 342 29
2007-10-02 06:18:14 51°23.947 2°46.512 340.9 12.6 343 28.5
2007-10-02 06:18:18 51°23.96 2°46.505 340.8 12.7 343 28.8
2007-10-02 06:18:24 51°23.981 2°46.495 341 12.6 343 27.4
2007-10-02 06:18:29 51°23.997 2°46.487 341 12.6 343 27.6
2007-10-02 06:18:34 51°24.014 2°46.479 340.5 12.7 342 28.3
2007-10-02 06:18:39 51°24.03 2°46.47 340.3 12.5 341 28.9
2007-10-02 06:18:44 51°24.047 2°46.461 339.3 12.3 342 28.6
2007-10-02 06:18:49 51°24.063 2°46.453 340 12.5 342 28.8
2007-10-02 06:18:54 51°24.08 2°46.445 340.2 12.5 343 29.4
2007-10-02 06:18:59 51°24.096 2°46.437 340.4 12.6 343 29.1
2007-10-02 06:19:04 51°24.114 2°46.429 341.1 12.7 343 28.2
2007-10-02 06:19:09 51°24.13 2°46.42 340.5 12.6 341 27.9
2007-10-02 06:19:14 51°24.147 2°46.41 339.5 12.7 341 28.4
2007-10-02 06:19:18 51°24.16 2°46.403 338.9 12.8 342 28.8
2007-10-02 06:19:24 51°24.18 2°46.392 338.8 12.8 340 29.6
2007-10-02 06:19:29 51°24.197 2°46.383 338.1 12.8 342 30.1
2007-10-02 06:19:34 51°24.214 2°46.374 338.6 12.9 342 30.8
2007-10-02 06:19:38 51°24.227 2°46.367 338.9 12.9 341 31
2007-10-02 06:19:44 51°24.247 2°46.356 338.9 12.9 340 31
2007-10-02 06:19:49 51°24.264 2°46.346 338.5 12.7 341 30.8
2007-10-02 06:19:54 51°24.281 2°46.337 338 12.7 340 30.5
2007-10-02 06:19:59 51°24.297 2°46.328 337.6 12.7 341 29.9
2007-10-02 06:20:04 51°24.314 2°46.318 338.2 12.7 341 29.8
2007-10-02 06:20:09 51°24.33 2°46.308 337.8 12.8 340 29.3
2007-10-02 06:20:14 51°24.348 2°46.299 338.2 12.8 341 29.1
2007-10-02 06:20:18 51°24.361 2°46.292 338.2 12.8 341 29.2
2007-10-02 06:20:24 51°24.381 2°46.28 338.5 12.8 339 28.7
2007-10-02 06:20:29 51°24.398 2°46.271 337.5 12.9 340 28.8
2007-10-02 06:20:34 51°24.415 2°46.261 336.8 13 340 28.2
2007-10-02 06:20:38 51°24.428 2°46.254 337.9 12.7 341 28
2007-10-02 06:20:44 51°24.448 2°46.242 337.5 12.6 339 28.5
2007-10-02 06:20:49 51°24.465 2°46.232 337.5 12.7 340 28.5
2007-10-02 06:20:54 51°24.481 2°46.222 337.5 12.7 340 27.7
2007-10-02 06:20:59 51°24.498 2°46.213 337.9 12.8 341 27.9
2007-10-02 06:21:04 51°24.514 2°46.203 338.2 12.8 341 28
2007-10-02 06:21:09 51°24.531 2°46.194 338.5 12.8 341 27.2
2007-10-02 06:21:14 51°24.548 2°46.185 337.9 12.8 341 26.4
2007-10-02 06:21:18 51°24.562 2°46.177 338.3 13 341 26
2007-10-02 06:21:24 51°24.582 2°46.166 338.9 12.9 342 26.2
2007-10-02 06:21:29 51°24.599 2°46.158 339.6 12.9 343 25.9
2007-10-02 06:21:34 51°24.615 2°46.147 338.5 12.9 339 26
2007-10-02 06:21:38 51°24.629 2°46.14 337.5 12.9 342 26.1
2007-10-02 06:21:44 51°24.649 2°46.128 338.3 12.8 340 25.8
2007-10-02 06:21:49 51°24.666 2°46.119 338.3 12.8 340 26.1
2007-10-02 06:21:54 51°24.683 2°46.109 338.7 12.7 340 25.9
2007-10-02 06:21:59 51°24.699 2°46.1 337.2 12.7 340 25.3
2007-10-02 06:22:05 51°24.719 2°46.089 337.7 12.8 342 25.7
2007-10-02 06:22:09 51°24.733 2°46.082 338.4 12.8 341 25.7
2007-10-02 06:22:14 51°24.749 2°46.072 338.7 12.8 340 26
2007-10-02 06:22:19 51°24.766 2°46.063 338.2 12.8 341 26
2007-10-02 06:22:24 51°24.783 2°46.053 337.9 13 341 25.7
2007-10-02 06:22:29 51°24.8 2°46.044 339.3 12.9 342 25.8
2007-10-02 06:22:34 51°24.817 2°46.035 339 12.7 341 25.1
2007-10-02 06:22:39 51°24.833 2°46.026 338.5 12.7 341 25.1
2007-10-02 06:22:44 51°24.85 2°46.016 338.4 12.8 340 25.1
2007-10-02 06:22:49 51°24.867 2°46.006 338.4 12.8 340 24.8
2007-10-02 06:22:54 51°24.884 2°45.997 337.9 12.9 340 25.5
2007-10-02 06:22:58 51°24.897 2°45.989 337.6 13 340 25.6
2007-10-02 06:23:04 51°24.918 2°45.978 338.7 13 341 25.4
2007-10-02 06:23:09 51°24.934 2°45.968 337.9 12.9 340 25.5
2007-10-02 06:23:14 51°24.952 2°45.959 338.3 13 342 26
2007-10-02 06:23:19 51°24.968 2°45.949 338.7 12.9 340 25.8
2007-10-02 06:23:24 51°24.985 2°45.94 338.7 13.1 341 26
2007-10-02 06:23:29 51°25.003 2°45.93 338.4 12.9 340 25.9
2007-10-02 06:23:34 51°25.02 2°45.921 338.1 12.9 341 24.2
2007-10-02 06:23:39 51°25.036 2°45.91 337.5 12.9 338 25.9
2007-10-02 06:23:44 51°25.053 2°45.901 337.9 12.8 340 26.1
2007-10-02 06:23:49 51°25.07 2°45.891 337.6 12.9 339 25.9
2007-10-02 06:23:54 51°25.086 2°45.881 337.6 12.9 340 26
2007-10-02 06:23:58 51°25.1 2°45.873 338.2 13 340 26.2
2007-10-02 06:24:04 51°25.12 2°45.861 339.1 12.9 340 25.3
2007-10-02 06:24:09 51°25.137 2°45.851 338.4 13 340 24.7
2007-10-02 06:24:14 51°25.154 2°45.841 338.2 13 339 26.6
2007-10-02 06:24:19 51°25.171 2°45.831 338.2 13 341 26.6
2007-10-02 06:24:25 51°25.191 2°45.82 338.8 12.9 341 26.3
2007-10-02 06:24:29 51°25.205 2°45.813 339.2 13 341 26.2
2007-10-02 06:24:34 51°25.222 2°45.803 338.9 13.1 341 26.1
2007-10-02 06:24:39 51°25.239 2°45.794 339.1 12.8 341 24
2007-10-02 06:24:44 51°25.256 2°45.784 338.2 12.8 341 25.3
2007-10-02 06:24:49 51°25.272 2°45.775 339 12.7 340 25.9
2007-10-02 06:24:54 51°25.289 2°45.765 338.6 12.8 340 25.9
2007-10-02 06:24:59 51°25.306 2°45.756 338.5 13 341 25.5
2007-10-02 06:25:04 51°25.323 2°45.746 338.4 13 339 25.9
2007-10-02 06:25:09 51°25.34 2°45.736 338.3 13 340 25.5
2007-10-02 06:25:14 51°25.357 2°45.725 337.3 12.9 338 24.8
2007-10-02 06:25:18 51°25.37 2°45.717 337.7 13 340 26.2
2007-10-02 06:25:24 51°25.39 2°45.704 337.2 12.9 339 26.4
2007-10-02 06:25:29 51°25.407 2°45.695 338.1 13 340 26
2007-10-02 06:25:34 51°25.424 2°45.684 338 13 340 25.7
2007-10-02 06:25:39 51°25.441 2°45.675 338.3 13.1 340 25.1
2007-10-02 06:25:44 51°25.458 2°45.665 338.4 12.9 341 24.1
2007-10-02 06:25:49 51°25.475 2°45.655 337.8 13 342 24.6
2007-10-02 06:25:54 51°25.492 2°45.645 338.7 13 340 25.2
2007-10-02 06:25:59 51°25.509 2°45.636 338.3 13.1 341 25.7
2007-10-02 06:26:04 51°25.526 2°45.626 338.9 13.2 340 25.5
2007-10-02 06:26:09 51°25.543 2°45.617 339.3 12.9 341 24.7
2007-10-02 06:26:14 51°25.56 2°45.607 339 12.6 340 25.2
2007-10-02 06:26:18 51°25.573 2°45.599 337.7 12.7 339 25.7
2007-10-02 06:26:24 51°25.593 2°45.587 337.7 12.9 340 24.1
2007-10-02 06:26:29 51°25.61 2°45.577 337.5 12.9 339 25.2
2007-10-02 06:26:34 51°25.627 2°45.567 337.5 13 340 25.7
2007-10-02 06:26:39 51°25.644 2°45.557 337.5 13.1 340 26.1
2007-10-02 06:26:44 51°25.661 2°45.547 337.6 12.9 340 26
2007-10-02 06:26:49 51°25.677 2°45.538 337.5 13 340 26.2
2007-10-02 06:26:54 51°25.695 2°45.528 337.7 13 342 25.4
2007-10-02 06:26:59 51°25.712 2°45.518 338.2 13.2 340 23.8
2007-10-02 06:27:04 51°25.729 2°45.509 338.3 13.2 341 24.4
2007-10-02 06:27:09 51°25.746 2°45.499 338.2 13 339 24.7
2007-10-02 06:27:14 51°25.763 2°45.489 338 13 340 25
2007-10-02 06:27:18 51°25.776 2°45.481 338.3 13.1 340 25.8
2007-10-02 06:27:24 51°25.797 2°45.469 339.3 13.1 341 26.1
2007-10-02 06:27:29 51°25.814 2°45.46 338 13 340 26.1
2007-10-02 06:27:34 51°25.831 2°45.45 338 13 340 26.6
2007-10-02 06:27:39 51°25.848 2°45.44 338 13 340 26.9
2007-10-02 06:27:44 51°25.865 2°45.43 337.8 13.1 340 27.4
2007-10-02 06:27:49 51°25.882 2°45.419 338.1 13.1 339 27
2007-10-02 06:27:54 51°25.899 2°45.41 338.5 13.2 342 26.8
2007-10-02 06:27:59 51°25.916 2°45.4 338.7 13.1 339 26.5
2007-10-02 06:28:04 51°25.933 2°45.39 338 13.1 341 26.6
2007-10-02 06:28:09 51°25.95 2°45.38 338.4 13.1 338 26.5
2007-10-02 06:28:14 51°25.967 2°45.369 337.5 13.1 339 24.4
2007-10-02 06:28:19 51°25.985 2°45.36 338.5 13.2 341 25.4
2007-10-02 06:28:24 51°26.001 2°45.349 338.2 12.9 339 26.1
2007-10-02 06:28:29 51°26.019 2°45.34 337.8 13 341 26.8
2007-10-02 06:28:34 51°26.035 2°45.329 338.4 13 338 27
2007-10-02 06:28:38 51°26.049 2°45.321 337.6 12.9 340 27.5
2007-10-02 06:28:44 51°26.069 2°45.308 338 13 339 27.7
2007-10-02 06:28:49 51°26.086 2°45.298 338.2 13 340 27.9
2007-10-02 06:28:54 51°26.103 2°45.288 338.2 13 339 27.6
2007-10-02 06:28:59 51°26.119 2°45.278 338.2 13 340 27.9
2007-10-02 06:29:04 51°26.136 2°45.268 338.7 13 339 28
2007-10-02 06:29:09 51°26.153 2°45.258 338.6 13.1 339 28.1
2007-10-02 06:29:14 51°26.17 2°45.247 338.7 13 338 28.3
2007-10-02 06:29:19 51°26.187 2°45.238 338.5 12.9 340 27.7
2007-10-02 06:29:24 51°26.204 2°45.227 338.5 12.9 339 27.8
2007-10-02 06:29:29 51°26.221 2°45.217 338.9 13 339 27.6
2007-10-02 06:29:34 51°26.238 2°45.208 338.6 13 341 27.6
2007-10-02 06:29:39 51°26.255 2°45.198 338.9 13.1 341 27.2
2007-10-02 06:29:44 51°26.271 2°45.188 338.7 13 340 27.3
2007-10-02 06:29:49 51°26.289 2°45.178 338.9 13 340 27.6
2007-10-02 06:29:54 51°26.306 2°45.168 338.9 12.9 340 27.3
2007-10-02 06:29:58 51°26.319 2°45.16 338.6 13 338 27.9
2007-10-02 06:30:04 51°26.339 2°45.148 338.9 12.8 340 28.1
2007-10-02 06:30:09 51°26.355 2°45.138 337.9 12.7 338 27.3
2007-10-02 06:30:14 51°26.372 2°45.128 338.2 12.5 340 27.7
2007-10-02 06:30:18 51°26.385 2°45.12 338 12.8 337 28.4
2007-10-02 06:30:24 51°26.404 2°45.108 338 12.4 340 28.2
2007-10-02 06:30:29 51°26.421 2°45.099 338.9 12.5 341 28.2
2007-10-02 06:30:34 51°26.437 2°45.089 339.3 12.7 340 28.3
2007-10-02 06:30:39 51°26.454 2°45.079 338.7 12.7 340 28.4
2007-10-02 06:30:45 51°26.474 2°45.068 338.6 12.8 340 28.7
2007-10-02 06:30:49 51°26.487 2°45.059 338.6 12.8 339 28.7
2007-10-02 06:30:54 51°26.503 2°45.049 338.2 12.8 339 28.2
2007-10-02 06:30:59 51°26.52 2°45.039 337.3 12.5 338 28.2
2007-10-02 06:31:04 51°26.536 2°45.029 337.6 12.6 339 28.6
2007-10-02 06:31:09 51°26.552 2°45.018 337.7 12.5 338 28.4
2007-10-02 06:31:14 51°26.568 2°45.008 337.2 12.7 339 28.6
2007-10-02 06:31:18 51°26.582 2°45.001 337.5 12.8 340 28.6
2007-10-02 06:31:24 51°26.602 2°44.989 338.1 12.8 340 28.8
2007-10-02 06:31:29 51°26.619 2°44.979 338.2 12.9 340 28.9
2007-10-02 06:31:34 51°26.636 2°44.969 338 12.9 340 29
2007-10-02 06:31:39 51°26.652 2°44.958 338.2 12.9 339 29.3
2007-10-02 06:31:44 51°26.669 2°44.949 338.5 12.7 341 28.9
2007-10-02 06:31:49 51°26.686 2°44.94 338.7 12.8 340 28.4
2007-10-02 06:31:54 51°26.702 2°44.93 338.4 12.8 340 28.4
2007-10-02 06:31:59 51°26.719 2°44.921 339.3 12.9 341 28.6
2007-10-02 06:32:04 51°26.736 2°44.911 339.2 12.7 341 28.6
2007-10-02 06:32:09 51°26.753 2°44.902 338.5 12.7 341 28
2007-10-02 06:32:14 51°26.769 2°44.892 338.1 12.6 340 28.1
2007-10-02 06:32:18 51°26.783 2°44.885 338.2 12.8 341 28.7
2007-10-02 06:32:24 51°26.803 2°44.874 338.6 12.8 341 28.6
2007-10-02 06:32:29 51°26.82 2°44.864 338.2 12.9 340 28.8
2007-10-02 06:32:34 51°26.836 2°44.855 338 12.9 340 28.9
2007-10-02 06:32:39 51°26.853 2°44.844 338.2 12.9 339 29
2007-10-02 06:32:45 51°26.873 2°44.834 338 12.8 342 28.7
2007-10-02 06:32:49 51°26.887 2°44.826 338.3 12.7 341 28.4
2007-10-02 06:32:54 51°26.903 2°44.817 338.4 12.5 341 28.3
2007-10-02 06:32:59 51°26.92 2°44.808 339 12.5 341 28.9
2007-10-02 06:33:04 51°26.936 2°44.799 338.4 12.6 341 29
2007-10-02 06:33:09 51°26.953 2°44.789 338.2 12.8 339 29.1
2007-10-02 06:33:14 51°26.97 2°44.78 338.2 13 341 29.2
2007-10-02 06:33:19 51°26.987 2°44.77 338.7 12.9 340 28.9
2007-10-02 06:33:25 51°27.006 2°44.759 338.2 12.4 341 27.5
2007-10-02 06:33:29 51°27.019 2°44.751 337.6 12.5 339 27.4
2007-10-02 06:33:34 51°27.035 2°44.741 336.7 12.5 340 28.1
2007-10-02 06:33:39 51°27.052 2°44.733 338.2 12.7 341 28.1
2007-10-02 06:33:44 51°27.068 2°44.722 336.7 12.8 340 28.4
2007-10-02 06:33:49 51°27.085 2°44.713 338 12.8 340 28.3
2007-10-02 06:33:54 51°27.102 2°44.703 337.5 12.9 339 28.5
2007-10-02 06:33:58 51°27.115 2°44.696 337.6 13 342 28.1
2007-10-02 06:34:04 51°27.135 2°44.684 337.8 12.8 340 27.8
2007-10-02 06:34:09 51°27.152 2°44.676 338.2 12.7 342 27.9
2007-10-02 06:34:14 51°27.169 2°44.665 338 12.6 340 27.8
2007-10-02 06:34:19 51°27.186 2°44.656 338.3 12.6 340 27.3
2007-10-02 06:34:24 51°27.202 2°44.646 337.7 12.7 341 27.1
2007-10-02 06:34:29 51°27.219 2°44.637 338.1 13.1 341 26.6
2007-10-02 06:34:34 51°27.236 2°44.627 338.4 13 340 26.2
2007-10-02 06:34:39 51°27.252 2°44.618 338.3 12.7 341 25
2007-10-02 06:34:44 51°27.269 2°44.609 338.5 12.9 342 25.4
2007-10-02 06:34:49 51°27.287 2°44.6 338.5 12.8 342 25.6
2007-10-02 06:34:54 51°27.303 2°44.591 338.7 12.8 341 25.5
2007-10-02 06:34:59 51°27.32 2°44.582 338.1 12.7 341 26.3
2007-10-02 06:35:04 51°27.337 2°44.573 338.8 13 340 25.8
2007-10-02 06:35:09 51°27.354 2°44.563 339 12.9 341 26.7
2007-10-02 06:35:14 51°27.371 2°44.553 337.9 12.8 340 27.1
2007-10-02 06:35:19 51°27.387 2°44.545 338.2 12.8 341 27.4
2007-10-02 06:35:24 51°27.404 2°44.534 337.5 12.9 340 27.6
2007-10-02 06:35:29 51°27.421 2°44.525 338 12.9 342 27.4
2007-10-02 06:35:34 51°27.438 2°44.516 338.9 13.1 339 27.9
2007-10-02 06:35:39 51°27.455 2°44.506 338.4 13 341 27.3
2007-10-02 06:35:45 51°27.476 2°44.494 338.4 13 339 27.3
2007-10-02 06:35:49 51°27.489 2°44.487 338 13 341 27.4
2007-10-02 06:35:54 51°27.506 2°44.478 338.6 13 341 27.6
2007-10-02 06:35:59 51°27.523 2°44.467 338 13 340 27.6
2007-10-02 06:36:04 51°27.54 2°44.457 338.2 13.1 340 27.7